Location: Navarre
(52.9016°N, 113.4144°W)
Time: 13:30:54
(UTC+00:00)

Envisat - Pass Details

Date: 05 December 2021
Orbit: 764 x 766 km, 98.2° (Epoch: 23 January)

Event Time Altitude Azimuth Distance (km) Brightness Sun altitude
Rises 13:12:46 0° 12° (NNE) 3,248 6.3 -19.4°
Reaches altitude 10° 13:15:06 10° 10° (N) 2,317 5.5 -19.1°
Maximum altitude 13:20:08 63° 290° (WNW) 856 2.9 -18.3°
Drops below altitude 10° 13:25:08 10° 210° (SSW) 2,300 5.3 -17.6°
Sets 13:27:27 0° 208° (SSW) 3,222 6.1 -17.3°
